Voltar ao catálogo

NOAA 16 DEB

AtivoSSO
NORAD 42355·DEBRIS·🇺🇸 United States

Lançado Sep 21, 2000 de Vandenberg Space Force Base

Loading…

Próximas Passagens (próximas 24 horas)

TLE

AtualizadoSource: Space-Track

Época: Sep 14, 2026, 06:48 UTC

1 42355U 00055QX  26257.28347087  .00001600  00000-0  82638-3 0  9997
2 42355  98.6819 280.6509 0033910 347.1706  12.8603 14.16143408543213

Acompanhe NOAA 16 DEB em tempo real com AllMySat

Download on the App Store